When you browse on this site, cookies collect data to enhance your experience and personalize the content and advertising you see.
Visit our Privacy Policy to learn more. By continuing to use the site, you agree to this use of cookies and data.
  • In Österreich
  • Länderverzeichnis
  • Für 7 Tage
  • Wassertemperatur
  • Wetterkarte
  • News
  • Widgets
  • user-avatar
    Anmelden

    Stündliche Wetter Dresden

    Heute, 31 Mai, Sonntag

    Zeit Temperatur Niederschläge Wind Luftdruck Luftfeuchtigkeit
    00:00 +9°C° 0 mm 1 m/S 754 mmHg 90%
    01:00 +9°C° 0 mm 1 m/S 753 mmHg 92%
    02:00 +9°C° 0 mm 1 m/S 753 mmHg 93%
    03:00 +9°C° 0 mm 1 m/S 753 mmHg 93%
    04:00 +7°C° 0 mm 2 m/S 753 mmHg 93%
    05:00 +8°C° 0 mm 2 m/S 753 mmHg 90%
    06:00 +9°C° 0 mm 2 m/S 753 mmHg 87%
    07:00 +10°C° 0 mm 3 m/S 753 mmHg 84%
    08:00 +10°C° 0 mm 3 m/S 753 mmHg 83%
    09:00 +11°C° 0 mm 4 m/S 753 mmHg 82%
    10:00 +11°C° 0 mm 4 m/S 753 mmHg 81%
    11:00 +12°C° 0 mm 4 m/S 753 mmHg 82%
    12:00 +12°C° 0 mm 4 m/S 753 mmHg 83%
    13:00 +12°C° 0 mm 3 m/S 753 mmHg 86%
    14:00 +14°C° 0 mm 3 m/S 753 mmHg 80%
    15:00 +16°C° 0 mm 3 m/S 752 mmHg 74%
    16:00 +18°C° 0 mm 3 m/S 752 mmHg 69%
    17:00 +18°C° 0.1 mm 3 m/S 752 mmHg 73%
    18:00 +18°C° 0.1 mm 3 m/S 753 mmHg 77%
    19:00 +17°C° 0.1 mm 3 m/S 753 mmHg 80%
    20:00 +16°C° 0.1 mm 3 m/S 753 mmHg 83%
    21:00 +15°C° 0.1 mm 2 m/S 753 mmHg 86%
    22:00 +14°C° 0.1 mm 2 m/S 753 mmHg 89%
    23:00 +13°C° 0 mm 2 m/S 754 mmHg 89%

    Morgen, 1 Juni, Montag

    Zeit Temperatur Niederschläge Wind Luftdruck Luftfeuchtigkeit
    00:00 +12°C° 0 mm 1 m/S 754 mmHg 90%
    01:00 +10°C° 0 mm 1 m/S 755 mmHg 90%
    02:00 +10°C° 0 mm 1 m/S 754 mmHg 90%
    03:00 +9°C° 0 mm 1 m/S 754 mmHg 91%
    04:00 +9°C° 0 mm 1 m/S 754 mmHg 91%
    05:00 +10°C° 0 mm 1 m/S 754 mmHg 88%
    06:00 +12°C° 0 mm 1 m/S 755 mmHg 85%
    07:00 +13°C° 0 mm 1 m/S 755 mmHg 82%
    08:00 +15°C° 0 mm 2 m/S 755 mmHg 77%
    09:00 +17°C° 0 mm 2 m/S 755 mmHg 71%
    10:00 +18°C° 0 mm 3 m/S 755 mmHg 66%
    11:00 +19°C° 0 mm 3 m/S 755 mmHg 63%
    12:00 +20°C° 0 mm 3 m/S 755 mmHg 59%
    13:00 +21°C° 0 mm 4 m/S 755 mmHg 56%
    14:00 +21°C° 0 mm 4 m/S 754 mmHg 55%
    15:00 +21°C° 0 mm 4 m/S 754 mmHg 55%
    16:00 +21°C° 0 mm 4 m/S 754 mmHg 54%
    17:00 +20°C° 0 mm 3 m/S 754 mmHg 59%
    18:00 +19°C° 0 mm 3 m/S 754 mmHg 64%
    19:00 +18°C° 0 mm 3 m/S 754 mmHg 69%
    20:00 +16°C° 0 mm 2 m/S 754 mmHg 70%
    21:00 +14°C° 0 mm 2 m/S 754 mmHg 71%
    22:00 +12°C° 0 mm 1 m/S 754 mmHg 73%
    23:00 +12°C° 0 mm 1 m/S 754 mmHg 75%

    übermorgen, 2 Juni, Dienstag

    Zeit Temperatur Niederschläge Wind Luftdruck Luftfeuchtigkeit
    00:00 +11°C° 0 mm 1 m/S 754 mmHg 76%
    01:00 +10°C° 0 mm 0 m/S 754 mmHg 78%
    02:00 +10°C° 0 mm 1 m/S 754 mmHg 81%
    03:00 +10°C° 0 mm 1 m/S 754 mmHg 83%
    04:00 +10°C° 0 mm 1 m/S 753 mmHg 86%
    05:00 +11°C° 0 mm 1 m/S 753 mmHg 83%
    06:00 +13°C° 0 mm 2 m/S 753 mmHg 80%
    07:00 +14°C° 0 mm 2 m/S 753 mmHg 77%
    08:00 +16°C° 0 mm 2 m/S 753 mmHg 71%
    09:00 +17°C° 0 mm 3 m/S 753 mmHg 66%
    10:00 +19°C° 0 mm 3 m/S 752 mmHg 61%
    11:00 +19°C° 0 mm 4 m/S 752 mmHg 59%
    12:00 +20°C° 0 mm 4 m/S 751 mmHg 57%
    13:00 +21°C° 0 mm 4 m/S 751 mmHg 55%
    14:00 +21°C° 0 mm 4 m/S 751 mmHg 55%
    15:00 +21°C° 0 mm 4 m/S 750 mmHg 55%
    16:00 +22°C° 0 mm 4 m/S 750 mmHg 55%
    17:00 +21°C° 0 mm 3 m/S 749 mmHg 60%
    18:00 +20°C° 0 mm 3 m/S 749 mmHg 65%
    19:00 +19°C° 0 mm 2 m/S 749 mmHg 70%
    20:00 +17°C° 0 mm 2 m/S 749 mmHg 75%
    21:00 +15°C° 0 mm 1 m/S 749 mmHg 79%
    22:00 +14°C° 0 mm 1 m/S 749 mmHg 83%
    23:00 +14°C° 0 mm 1 m/S 748 mmHg 83%

    3 Juni, Mittwoch

    Zeit Temperatur Niederschläge Wind Luftdruck Luftfeuchtigkeit
    00:00 +14°C° 0 mm 1 m/S 748 mmHg 83%
    01:00 +13°C° 0 mm 0 m/S 748 mmHg 83%
    02:00 +12°C° 0 mm 0 m/S 747 mmHg 84%
    03:00 +13°C° 0 mm 1 m/S 747 mmHg 85%
    04:00 +12°C° 0 mm 1 m/S 746 mmHg 86%
    05:00 +14°C° 0 mm 1 m/S 746 mmHg 81%
    06:00 +15°C° 0 mm 1 m/S 746 mmHg 76%
    07:00 +18°C° 0 mm 1 m/S 746 mmHg 72%
    08:00 +19°C° 0.1 mm 1 m/S 746 mmHg 70%
    09:00 +20°C° 0.1 mm 1 m/S 745 mmHg 68%
    10:00 +20°C° 0.1 mm 1 m/S 745 mmHg 66%
    11:00 +21°C° 0.6 mm 1 m/S 745 mmHg 63%
    12:00 +22°C° 0.6 mm 1 m/S 744 mmHg 61%
    13:00 +23°C° 0.6 mm 1 m/S 744 mmHg 59%
    14:00 +23°C° 0.9 mm 1 m/S 743 mmHg 60%
    15:00 +22°C° 0.9 mm 1 m/S 743 mmHg 62%
    16:00 +22°C° 0.9 mm 1 m/S 742 mmHg 64%
    17:00 +21°C° 0.3 mm 1 m/S 742 mmHg 68%
    18:00 +21°C° 0.3 mm 1 m/S 742 mmHg 73%
    19:00 +20°C° 0.3 mm 1 m/S 741 mmHg 78%
    20:00 +18°C° 0 mm 1 m/S 741 mmHg 80%
    21:00 +16°C° 0 mm 2 m/S 741 mmHg 82%
    22:00 +15°C° 0 mm 2 m/S 741 mmHg 83%
    23:00 +15°C° 0 mm 2 m/S 741 mmHg 84%

    4 Juni, Donnerstag

    Zeit Temperatur Niederschläge Wind Luftdruck Luftfeuchtigkeit
    00:00 +14°C° 0 mm 2 m/S 740 mmHg 85%
    01:00 +14°C° 0 mm 2 m/S 740 mmHg 86%
    02:00 +13°C° 0 mm 3 m/S 740 mmHg 86%
    03:00 +13°C° 0 mm 3 m/S 739 mmHg 86%
    04:00 +13°C° 0 mm 3 m/S 739 mmHg 86%
    05:00 +14°C° 0 mm 3 m/S 739 mmHg 84%
    06:00 +16°C° 0 mm 3 m/S 738 mmHg 81%
    07:00 +18°C° 0 mm 3 m/S 738 mmHg 78%
    08:00 +19°C° 0.2 mm 4 m/S 738 mmHg 74%
    09:00 +20°C° 0.2 mm 5 m/S 738 mmHg 70%
    10:00 +21°C° 0.2 mm 5 m/S 738 mmHg 66%
    11:00 +20°C° 1.5 mm 5 m/S 737 mmHg 74%
    12:00 +18°C° 1.5 mm 4 m/S 737 mmHg 81%
    13:00 +17°C° 1.5 mm 3 m/S 737 mmHg 89%
    14:00 +17°C° 0.2 mm 3 m/S 737 mmHg 88%
    15:00 +18°C° 0.2 mm 4 m/S 736 mmHg 86%
    16:00 +18°C° 0.2 mm 4 m/S 736 mmHg 85%
    17:00 +18°C° 0.3 mm 4 m/S 736 mmHg 86%
    18:00 +17°C° 0.3 mm 4 m/S 737 mmHg 87%
    19:00 +17°C° 0.3 mm 4 m/S 737 mmHg 88%
    20:00 +16°C° 0 mm 3 m/S 737 mmHg 89%
    21:00 +13°C° 0 mm 3 m/S 738 mmHg 90%
    22:00 +12°C° 0 mm 3 m/S 738 mmHg 91%
    23:00 +12°C° 0 mm 3 m/S 739 mmHg 91%

    5 Juni, Freitag

    Zeit Temperatur Niederschläge Wind Luftdruck Luftfeuchtigkeit
    00:00 +12°C° 0 mm 3 m/S 739 mmHg 90%
    01:00 +11°C° 0 mm 3 m/S 739 mmHg 89%
    02:00 +12°C° 0 mm 2 m/S 739 mmHg 90%
    03:00 +12°C° 0 mm 2 m/S 739 mmHg 91%
    04:00 +10°C° 0 mm 2 m/S 739 mmHg 92%
    05:00 +12°C° 0 mm 2 m/S 740 mmHg 89%
    06:00 +12°C° 0 mm 3 m/S 740 mmHg 86%
    07:00 +12°C° 0 mm 3 m/S 740 mmHg 83%
    08:00 +13°C° 0.1 mm 3 m/S 740 mmHg 78%
    09:00 +15°C° 0.1 mm 4 m/S 740 mmHg 72%
    10:00 +17°C° 0.1 mm 4 m/S 740 mmHg 67%
    11:00 +18°C° 0 mm 4 m/S 740 mmHg 63%
    12:00 +19°C° 0 mm 4 m/S 740 mmHg 58%
    13:00 +20°C° 0 mm 4 m/S 739 mmHg 54%
    14:00 +21°C° 0 mm 4 m/S 739 mmHg 53%
    15:00 +21°C° 0 mm 4 m/S 739 mmHg 53%
    16:00 +22°C° 0 mm 3 m/S 738 mmHg 52%
    17:00 +21°C° 0 mm 3 m/S 738 mmHg 58%
    18:00 +20°C° 0 mm 2 m/S 738 mmHg 63%
    19:00 +19°C° 0 mm 2 m/S 737 mmHg 68%
    20:00 +18°C° 0 mm 2 m/S 737 mmHg 70%
    21:00 +17°C° 0 mm 2 m/S 737 mmHg 72%
    22:00 +16°C° 0 mm 3 m/S 737 mmHg 74%
    23:00 +17°C° 0 mm 3 m/S 738 mmHg 74%
    Mehr zeigen